Regional Weather Roundup
Issued by NWS

Home | Current Version | Previous Version | Text Only | Print | Product List | Glossary Off
Versions: 1 2 3 4 5 6 7 8 9 10 11 12 13 14 15 16 17 18 19 20 21 22 23 24 25 26 27 28 29 30 31 32 33 34 35 36 37 38 39 40 41 42 43 44 45 46 47 48 49 50

000
ASUS43 KFSD 020710
RWRSD

WEATHER ROUNDUP FOR SOUTH DAKOTA
NATIONAL WEATHER SERVICE SIOUX FALLS SD
100 AM CST FRI DEC 02 2016

NOTE: "FAIR" INDICATES FEW OR NO CLOUDS BELOW 12,000 FEET WITH NO
SIGNIFICANT WEATHER AND/OR OBSTRUCTIONS TO VISIBILITY.


SDZ001>005-009-010-012>017-020800-
NORTHWEST AND NORTH CENTRAL SOUTH DAKOTA

CITY           SKY/WX    TMP DP  RH WIND       PRES   REMARKS
BUFFALO          N/A     24  22  91 CALM      29.98R
FAITH            N/A     26  26 100 SW3       30.08R
MOBRIDGE       CLOUDY    29  25  85 CALM      30.09R
$$

SDZ012>016-024>037-041>051-057-063-072>074-020800-
SOUTHWEST AND SOUTH CENTRAL SOUTH DAKOTA

CITY           SKY/WX    TMP DP  RH WIND       PRES   REMARKS
RAPID CTY ARPT CLOUDY    24  19  81 CALM      30.06R
PIERRE         CLOUDY    29  25  85 W5        30.10R WCI  24
CUSTER         CLOUDY    22  16  78 CALM      29.98R
ELLSWORTH AFB  MOCLDY    21  19  89 NW3       30.05R
PHILIP         CLOUDY    24  22  91 W6        30.11R WCI  17
PINE RIDGE     CLOUDY    25  22  88 CALM      30.06R
SPEARFISH      MOCLDY    28  25  86 W7        30.03S WCI  21
WINNER         CLOUDY    27  24  89 W6        30.11R WCI  20
$$

SDZ004>011-016>023-039-040-020800-
NORTHEAST SOUTH DAKOTA

CITY           SKY/WX    TMP DP  RH WIND       PRES   REMARKS
ABERDEEN       CLOUDY    29  23  78 N8        30.13R WCI  21
WATERTOWN      CLOUDY    25  23  92 NW9       30.08R WCI  15
BROOKINGS      CLOUDY    28  27  93 N8        30.08R WCI  20
SISSETON         N/A     28  23  81 N9        30.11R WCI  19
$$

SDZ017-020-022-023-036>040-048>070-020800-
SOUTHEAST SOUTH DAKOTA

CITY           SKY/WX    TMP DP  RH WIND       PRES   REMARKS
SIOUX FALLS    CLOUDY    33  32  96 NW5       30.09R WCI  29
HURON          CLOUDY    30  28  92 N6        30.12R WCI  24
CHAMBERLAIN    CLOUDY    31  31 100 NW5       30.11R FOG     WCI  26
MITCHELL       FLURRIES  32  31  96 W5        30.12R WCI  27
YANKTON        CLOUDY    32  28  86 W6        30.11R WCI  26
$$

ABBREVIATIONS USED IN REMARKS
   TC - TEMPERATURE IN CELSIUS
  WCI - WIND CHILL INDEX
   HX - HEAT INDEX
  VSB - VISIBILITY





USA.gov is the U.S. government's official web portal to all federal, state and local government web resources and services.